Radiation Dose at Monitoring Post of Fukushima Daini Nuclear Power Station
Date,Time,MP-1(microSv/h),MP-2(microSv/h),MP-3(microSv/h),MP-4(microSv/h),MP-5(microSv/h),MP-6(microSv/h),MP-7(microSv/h),Wind Direction,Wind Velocity(m/s),Rain
2023/05/01,00:00,0.147,0.133,0.209,0.206,0.207,0.118,0.075,north-northwest,4.0,No
2023/05/01,00:10,0.145,0.133,0.208,0.205,0.211,0.117,0.075,north-northwest,3.8,No
2023/05/01,00:20,0.146,0.133,0.207,0.206,0.209,0.117,0.075,northwest,3.7,No
2023/05/01,00:30,0.146,0.133,0.208,0.205,0.209,0.118,0.075,north-northwest,3.5,No
2023/05/01,00:40,0.146,0.134,0.208,0.205,0.209,0.118,0.076,north-northwest,3.3,No
2023/05/01,00:50,0.146,0.133,0.208,0.206,0.209,0.116,0.075,north-northwest,2.4,No
2023/05/01,01:00,0.146,0.133,0.208,0.205,0.210,0.118,0.076,north-northwest,1.5,No
2023/05/01,01:10,0.146,0.132,0.209,0.206,0.208,0.117,0.075,north-northwest,1.8,No
2023/05/01,01:20,0.145,0.133,0.208,0.205,0.211,0.117,0.076,north-northwest,2.3,No
2023/05/01,01:30,0.147,0.132,0.209,0.205,0.208,0.117,0.075,north-northwest,2.5,No
2023/05/01,01:40,0.146,0.132,0.208,0.206,0.208,0.118,0.075,north-northwest,2.3,No
2023/05/01,01:50,0.146,0.133,0.208,0.205,0.209,0.118,0.075,north,2.7,No
2023/05/01,02:00,0.146,0.133,0.210,0.206,0.208,0.117,0.075,northwest,1.9,No
2023/05/01,02:10,0.146,0.133,0.208,0.206,0.209,0.117,0.075,north-northwest,3.4,No
2023/05/01,02:20,0.145,0.133,0.208,0.203,0.208,0.118,0.076,north-northwest,4.9,No
2023/05/01,02:30,0.146,0.134,0.210,0.206,0.209,0.117,0.076,north-northwest,4.7,No
2023/05/01,02:40,0.145,0.133,0.209,0.206,0.209,0.119,0.075,north-northwest,3.9,No
2023/05/01,02:50,0.146,0.133,0.208,0.205,0.209,0.117,0.075,north-northwest,5.6,No
2023/05/01,03:00,0.146,0.133,0.209,0.205,0.210,0.117,0.076,north-northwest,4.7,No
2023/05/01,03:10,0.147,0.133,0.209,0.205,0.209,0.117,0.075,north,3.4,No
2023/05/01,03:20,0.146,0.133,0.208,0.205,0.210,0.118,0.076,north-northwest,2.5,No
2023/05/01,03:30,0.146,0.133,0.209,0.205,0.209,0.117,0.076,north-northwest,2.4,No
2023/05/01,03:40,0.146,0.133,0.209,0.206,0.209,0.117,0.075,north-northwest,3.1,No
2023/05/01,03:50,0.146,0.132,0.208,0.205,0.210,0.117,0.076,north-northwest,3.1,No
2023/05/01,04:00,0.146,0.133,0.209,0.205,0.208,0.117,0.076,northwest,4.6,No
2023/05/01,04:10,0.147,0.133,0.210,0.204,0.210,0.118,0.076,northwest,6.8,No
2023/05/01,04:20,0.146,0.133,0.207,0.205,0.208,0.118,0.075,northwest,6.4,No
2023/05/01,04:30,0.146,0.133,0.208,0.206,0.210,0.118,0.076,north-northwest,7.1,No
2023/05/01,04:40,0.146,0.133,0.209,0.206,0.209,0.117,0.075,north-northwest,6.5,No
2023/05/01,04:50,0.146,0.133,0.207,0.204,0.209,0.117,0.076,north-northwest,7.0,No
2023/05/01,05:00,0.147,0.133,0.208,0.204,0.211,0.117,0.076,north-northwest,5.3,No
2023/05/01,05:10,0.146,0.133,0.210,0.204,0.208,0.118,0.075,north-northwest,5.9,No
2023/05/01,05:20,0.147,0.134,0.209,0.206,0.209,0.118,0.076,north-northwest,5.9,No
2023/05/01,05:30,0.146,0.133,0.208,0.206,0.209,0.118,0.075,northwest,6.2,No
2023/05/01,05:40,0.146,0.133,0.211,0.205,0.209,0.117,0.075,northwest,6.9,No
2023/05/01,05:50,0.146,0.133,0.209,0.206,0.210,0.117,0.076,northwest,7.3,No
2023/05/01,06:00,0.147,0.133,0.209,0.205,0.210,0.118,0.075,northwest,3.9,No
2023/05/01,06:10,0.148,0.133,0.210,0.204,0.209,0.118,0.076,west-northwest,3.7,No
2023/05/01,06:20,0.147,0.133,0.208,0.206,0.208,0.117,0.077,-,CALM,No
2023/05/01,06:30,0.147,0.133,0.208,0.206,0.209,0.117,0.076,northwest,1.7,No
2023/05/01,06:40,0.147,0.133,0.210,0.205,0.209,0.118,0.075,west-northwest,3.3,No
2023/05/01,06:50,0.146,0.133,0.208,0.204,0.208,0.117,0.076,west-northwest,2.3,No
2023/05/01,07:00,0.147,0.133,0.209,0.205,0.210,0.118,0.076,west,1.3,No
2023/05/01,07:10,0.146,0.133,0.208,0.205,0.208,0.117,0.075,-,CALM,No
2023/05/01,07:20,0.147,0.133,0.209,0.206,0.209,0.117,0.075,east-southeast,1.7,No
2023/05/01,07:30,0.147,0.132,0.209,0.205,0.208,0.117,0.076,-,CALM,No
2023/05/01,07:40,0.147,0.134,0.209,0.205,0.209,0.117,0.076,-,CALM,No
2023/05/01,07:50,0.146,0.132,0.209,0.205,0.208,0.117,0.076,east,1.3,No
2023/05/01,08:00,-,-,-,-,-,-,-,-,-,-
2023/05/01,08:10,0.145,0.133,0.207,0.204,0.208,0.117,0.076,-,CALM,No
2023/05/01,08:20,0.147,0.132,0.209,0.206,0.210,0.118,0.076,northwest,1.0,No
2023/05/01,08:30,0.145,0.133,0.206,0.204,0.207,0.118,0.076,east-southeast,1.3,No
2023/05/01,08:40,0.147,0.133,0.209,0.206,0.211,0.117,0.076,east-southeast,1.4,No
2023/05/01,08:50,0.146,0.133,0.208,0.206,0.209,0.117,0.076,east-southeast,2.2,No
2023/05/01,09:00,0.146,0.133,0.207,0.203,0.207,0.118,0.075,east,2.3,No
2023/05/01,09:10,0.147,0.133,0.206,0.205,0.210,0.118,0.076,east-northeast,2.3,No
2023/05/01,09:20,0.146,0.132,0.210,0.206,0.209,0.117,0.075,east,2.6,No
2023/05/01,09:30,0.145,0.132,0.209,0.205,0.207,0.118,0.076,east,2.7,No
2023/05/01,09:40,0.146,0.132,0.207,0.203,0.210,0.118,0.075,east-southeast,2.5,No
2023/05/01,09:50,0.146,0.133,0.207,0.205,0.209,0.118,0.076,southeast,2.1,No
2023/05/01,10:00,0.145,0.133,0.211,0.207,0.207,0.118,0.076,southeast,1.9,No
2023/05/01,10:10,0.148,0.133,0.209,0.206,0.208,0.118,0.076,southeast,2.6,No
2023/05/01,10:20,0.147,0.133,0.208,0.204,0.212,0.117,0.076,east-southeast,2.7,No
2023/05/01,10:30,0.145,0.134,0.207,0.207,0.208,0.119,0.076,southeast,2.4,No
2023/05/01,10:40,0.147,0.133,0.211,0.207,0.209,0.118,0.075,south-southeast,2.4,No
2023/05/01,10:50,0.147,0.134,0.209,0.206,0.211,0.118,0.077,southeast,2.1,No
2023/05/01,11:00,0.146,0.132,0.209,0.206,0.209,0.118,0.076,southeast,2.8,No
2023/05/01,11:10,0.146,0.134,0.211,0.207,0.208,0.117,0.075,southeast,2.8,No
2023/05/01,11:20,0.147,0.134,0.209,0.206,0.211,0.119,0.076,east-southeast,2.3,No
2023/05/01,11:30,0.146,0.133,0.209,0.206,0.209,0.118,0.076,southeast,2.9,No
2023/05/01,11:40,0.146,0.133,0.211,0.208,0.209,0.118,0.075,east-southeast,2.9,No
2023/05/01,11:50,0.147,0.133,0.209,0.206,0.211,0.119,0.076,southeast,2.8,No
2023/05/01,12:00,0.146,0.133,0.210,0.206,0.210,0.118,0.076,southeast,3.7,No
2023/05/01,12:10,0.145,0.134,0.211,0.207,0.208,0.118,0.076,southeast,2.5,No
2023/05/01,12:20,0.147,0.133,0.210,0.206,0.211,0.119,0.076,south-southeast,4.2,No
2023/05/01,12:30,0.146,0.134,0.210,0.205,0.209,0.119,0.077,southeast,3.7,No
2023/05/01,12:40,0.145,0.133,0.211,0.208,0.208,0.118,0.077,southeast,4.7,No
2023/05/01,12:50,0.145,0.132,0.210,0.207,0.211,0.118,0.075,south-southeast,4.8,No
2023/05/01,13:00,0.146,0.134,0.208,0.205,0.212,0.119,0.076,south-southeast,4.9,No
2023/05/01,13:10,0.148,0.133,0.210,0.207,0.210,0.119,0.076,south-southeast,5.0,No
2023/05/01,13:20,0.146,0.133,0.211,0.207,0.209,0.118,0.075,south-southeast,4.9,No
2023/05/01,13:30,0.146,0.133,0.211,0.206,0.209,0.119,0.075,south-southeast,3.9,No
2023/05/01,13:40,0.145,0.135,0.209,0.207,0.211,0.119,0.076,southeast,4.2,No
2023/05/01,13:50,0.147,0.133,0.210,0.207,0.210,0.119,0.076,south-southeast,4.1,No
2023/05/01,14:00,0.147,0.132,0.212,0.209,0.209,0.118,0.076,south-southeast,6.1,No
2023/05/01,14:10,0.147,0.135,0.211,0.206,0.207,0.119,0.076,south-southeast,6.0,No
2023/05/01,14:20,0.145,0.133,0.208,0.205,0.212,0.118,0.075,south-southeast,6.0,No
2023/05/01,14:30,0.145,0.132,0.210,0.207,0.212,0.119,0.076,south-southeast,5.6,No
2023/05/01,14:40,0.147,0.134,0.213,0.208,0.209,0.119,0.077,south-southeast,6.2,No
2023/05/01,14:50,0.148,0.134,0.211,0.206,0.208,0.119,0.076,south-southeast,4.1,No
2023/05/01,15:00,0.147,0.133,0.210,0.207,0.211,0.119,0.076,north-northeast,0.8,No
2023/05/01,15:10,0.146,0.133,0.213,0.210,0.212,0.118,0.076,east-southeast,1.2,No
2023/05/01,15:20,0.145,0.134,0.210,0.207,0.209,0.119,0.076,south-southeast,5.9,No
2023/05/01,15:30,0.149,0.132,0.212,0.207,0.208,0.118,0.075,south-southeast,5.3,No
2023/05/01,15:40,0.148,0.134,0.212,0.208,0.212,0.118,0.076,south-southeast,6.8,No
2023/05/01,15:50,0.146,0.133,0.211,0.207,0.211,0.119,0.076,south-southeast,6.1,No
2023/05/01,16:00,0.147,0.134,0.213,0.209,0.209,0.119,0.077,south-southeast,6.5,No
2023/05/01,16:10,0.148,0.135,0.211,0.208,0.208,0.119,0.076,south-southeast,5.7,No
2023/05/01,16:20,0.147,0.134,0.213,0.210,0.212,0.119,0.076,south-southeast,4.9,No
2023/05/01,16:30,0.146,0.134,0.211,0.208,0.210,0.119,0.076,south-southeast,4.6,No
2023/05/01,16:40,0.148,0.134,0.212,0.210,0.210,0.119,0.076,south-southeast,5.8,No
2023/05/01,16:50,0.146,0.134,0.212,0.207,0.212,0.120,0.077,south-southeast,7.7,No
2023/05/01,17:00,0.147,0.133,0.212,0.209,0.211,0.118,0.076,south,7.0,No
2023/05/01,17:10,0.147,0.134,0.212,0.207,0.212,0.119,0.076,south,7.4,No
2023/05/01,17:20,0.149,0.135,0.212,0.209,0.211,0.119,0.077,south-southwest,9.2,Yes
2023/05/01,17:30,0.148,0.134,0.214,0.210,0.213,0.121,0.077,south-southwest,8.5,Yes
2023/05/01,17:40,0.151,0.138,0.215,0.213,0.215,0.124,0.081,southwest,7.2,Yes
2023/05/01,17:50,0.153,0.141,0.220,0.214,0.218,0.128,0.083,south-southwest,8.9,Yes
2023/05/01,18:00,0.158,0.145,0.222,0.218,0.219,0.132,0.088,south-southwest,7.0,Yes
2023/05/01,18:10,0.157,0.144,0.222,0.220,0.219,0.132,0.089,west-southwest,8.6,Yes
2023/05/01,18:20,0.158,0.145,0.225,0.220,0.222,0.132,0.089,west-southwest,5.6,Yes
2023/05/01,18:30,0.160,0.148,0.224,0.222,0.221,0.134,0.090,west-southwest,8.7,Yes
2023/05/01,18:40,0.161,0.147,0.226,0.222,0.223,0.136,0.091,southwest,9.2,Yes
2023/05/01,18:50,0.160,0.146,0.226,0.221,0.221,0.135,0.090,southwest,7.1,Yes
2023/05/01,19:00,0.158,0.145,0.225,0.222,0.222,0.133,0.090,west-southwest,6.4,Yes
2023/05/01,19:10,0.159,0.144,0.224,0.220,0.221,0.134,0.089,west,6.9,Yes
2023/05/01,19:20,0.156,0.146,0.222,0.219,0.220,0.132,0.088,west,7.0,Yes
2023/05/01,19:30,0.157,0.143,0.221,0.218,0.221,0.130,0.087,west,8.3,Yes
2023/05/01,19:40,0.154,0.141,0.219,0.215,0.216,0.128,0.084,west,9.5,No
2023/05/01,19:50,0.154,0.141,0.219,0.214,0.218,0.127,0.084,west,10.1,Yes
2023/05/01,20:00,0.154,0.139,0.215,0.214,0.214,0.125,0.083,west-northwest,10.4,No
2023/05/01,20:10,0.151,0.138,0.216,0.212,0.215,0.124,0.080,west,11.2,Yes
2023/05/01,20:20,0.152,0.137,0.213,0.211,0.213,0.123,0.080,west-northwest,13.3,Yes
2023/05/01,20:30,0.149,0.135,0.212,0.208,0.212,0.122,0.079,west,11.5,No
2023/05/01,20:40,0.150,0.136,0.214,0.210,0.211,0.121,0.079,west-northwest,11.2,Yes
2023/05/01,20:50,0.149,0.135,0.212,0.209,0.211,0.121,0.078,west-northwest,10.3,Yes
2023/05/01,21:00,0.149,0.135,0.212,0.208,0.212,0.121,0.078,west-northwest,10.6,Yes
2023/05/01,21:10,0.149,0.135,0.212,0.209,0.211,0.120,0.078,west-northwest,8.6,Yes
2023/05/01,21:20,0.148,0.135,0.211,0.208,0.211,0.120,0.077,northwest,5.6,Yes
2023/05/01,21:30,0.148,0.136,0.212,0.208,0.212,0.119,0.076,northwest,5.9,No
2023/05/01,21:40,0.148,0.134,0.211,0.207,0.210,0.119,0.077,west-northwest,5.7,No
2023/05/01,21:50,0.149,0.134,0.210,0.208,0.211,0.119,0.077,northwest,7.0,No
2023/05/01,22:00,0.148,0.135,0.211,0.207,0.211,0.119,0.076,west-northwest,8.4,No
2023/05/01,22:10,0.148,0.134,0.212,0.207,0.211,0.119,0.076,north-northwest,5.1,No
2023/05/01,22:20,0.149,0.134,0.210,0.207,0.210,0.119,0.077,northwest,4.7,Yes
2023/05/01,22:30,0.147,0.134,0.212,0.208,0.210,0.119,0.076,northwest,5.2,No
2023/05/01,22:40,0.148,0.135,0.210,0.207,0.211,0.120,0.076,west-northwest,4.7,Yes
2023/05/01,22:50,0.147,0.134,0.210,0.208,0.210,0.118,0.076,northwest,5.4,Yes
2023/05/01,23:00,0.148,0.134,0.211,0.207,0.210,0.119,0.076,northwest,7.6,No
2023/05/01,23:10,0.146,0.134,0.210,0.207,0.209,0.119,0.077,northwest,4.5,No
2023/05/01,23:20,0.147,0.134,0.212,0.206,0.210,0.118,0.076,west-northwest,7.3,No
2023/05/01,23:30,0.148,0.134,0.212,0.208,0.211,0.119,0.076,northwest,7.8,No
2023/05/01,23:40,0.148,0.134,0.211,0.208,0.210,0.118,0.077,northwest,8.9,No
2023/05/01,23:50,0.148,0.134,0.211,0.206,0.211,0.119,0.075,northwest,6.3,No
